Location: Bow
(51.5261°N, 0.0167°W)
Time: 13:22:06
(UTC+00:00)

ATLAS 3B R/B - Pass Details

Date: 18 September 2020
Orbit: 1016 x 1179 km, 63.8° (Epoch: 04 October)

Event Time Altitude Azimuth Distance (km) Brightness Sun altitude
Rises 19:28:53 0° 307° (NW) 3,794 7.1 -13.3°
Reaches altitude 10° 19:31:42 10° 316° (NW) 2,856 6.0 -13.7°
Maximum altitude 19:37:57 38° 24° (NNE) 1,566 3.6 -14.6°
Enters shadow 19:42:49 17° 84° (E) 2,458 4.1 -15.3°
